[[{"header":{"parameterUnit":"m.s-1","parameterCategory":2,"la1":30.2991,"la2":30.254,"lo1":-89.0895,"lo2":-89.0444,"dy":0.0017,"dx":0.0017,"nx":28,"ny":28,"refTime":"2026-02-09T03:00:00:Z","depth":"0","parameterNumber":2,"parameterNumberName":"U-component_of_CURRENTS"},"data":[0,0,0,0,0,0,0,0,0,0,0,0,0,0,0,0,0,0,0,0,0,0,0,0,0,0,0,0,0,0,0,0,0,0,0,0,0,0,0,0,0,0,0,0,0,0,0,0,0,0,0,0,0,0,0,0,0,0,0.2866,0.2866,0,0.2888,0.2888,0.2889,0.2838,0.2837,0.2835,0.2833,0.288,0.2883,0.2885,0,0,0,0,0,0,0,0,0,0,0,0,0,0.283,0.2831,0.2866,0.2866,0.2866,0.2888,0.2888,0.2889,0.2839,0.2837,0.2834,0.2833,0.2879,0.2882,0.2886,0,0,0,0,0,0,0,0,0,0,0,0,0,0.2849,0.2831,0.2866,0.2843,0.2841,0.2888,0.2888,0.2889,0.2839,0.2836,0.2834,0.2832,0.2878,0.2882,0.2886,0.2963,0,0,0.2899,0.2901,0,0,0,0,0,0,0,0,0.2848,0.285,0.2846,0.2845,0.2843,0.2857,0.2893,0.2915,0.284,0.2841,0.2833,0.283,0.2876,0.288,0.2891,0.2965,0.2967,0.2899,0.2902,0.2904,0.2905,0,0,0,0,0,0,0,0.2846,0.2849,0.2875,0.2847,0.2845,0.2849,0.2849,0.2897,0.2873,0.284,0.2837,0.2839,0.2875,0.2887,0.2892,0.2968,0.2899,0.2903,0.2906,0.2907,0.3132,0.3135,0,0,0,0,0,0,0.2843,0.2848,0.2874,0.2876,0.2838,0.2852,0.2851,0.2856,0.2872,0.2872,0.2841,0.2836,0.2881,0.2887,0.2893,0.306,0.2904,0.2908,0.291,0.3129,0.3133,0.3136,0,0,0,0,0,0,0.2842,0.2845,0.2874,0.2861,0.2865,0.2854,0.286,0.2857,0.2872,0.2872,0.2872,0.2858,0.2879,0.2887,0.2958,0.3059,0.291,0.2913,0.3124,0.313,0.3135,0.3347,0,0,0,0,0,0,0.2841,0.2845,0.287,0.2861,0.2866,0.2937,0.2863,0.286,0.2876,0.2871,0.2888,0.2888,0.2878,0.2952,0.2962,0.3062,0.2917,0.312,0.3127,0.3133,0.3336,0.3359,0.3379,0,0,0,0,0,0.284,0.2907,0.2871,0.2875,0.2893,0.294,0.2946,0.2928,0.288,0.2923,0.292,0.2888,0.2999,0.2959,0.297,0.3073,0.3117,0.3125,0.3132,0.3326,0.3354,0.3378,0,0,0,0,0,0,0.2948,0.2907,0.2868,0.2929,0.2938,0.2932,0.2985,0.2944,0.2975,0.2972,0.294,0.2945,0.3046,0.3024,0.298,0.3151,0.3051,0.3061,0.3195,0.3221,0.3242,0.3284,0.292,0,0,0,0,0,0.297,0.2982,0.296,0.3013,0.3025,0.2998,0.3017,0.2998,0.3011,0.3019,0.3022,0.3038,0.3091,0.3122,0.3158,0.3262,0.3266,0.3329,0.335,0.3369,0.3409,0.3502,0.3537,0.3162,0.3162,0.3162,0,0,0.3032,0.3008,0.3022,0.3032,0.3039,0.3098,0.3007,0.3059,0.3115,0.3026,0.3124,0.312,0.3131,0.3246,0.3289,0.3241,0.3478,0.3379,0.3395,0.3425,0.3514,0.3551,0.3583,0.3167,0.3166,0.3165,0,0,0.3161,0.3139,0.3189,0.3198,0.3205,0.32,0.3215,0.3217,0.3232,0.3303,0.3267,0.3332,0.3377,0.3437,0.3462,0.3628,0.3586,0.3616,0.3775,0.3865,0.3897,0.3926,0.3982,0.4014,0.3631,0.3631,0.3631,0,0.3238,0.3283,0.3226,0.3278,0.3305,0.325,0.333,0.3363,0.3385,0.3425,0.3361,0.3477,0.3487,0.3653,0.3706,0.3688,0.37,0.3679,0.3897,0.3925,0.3951,0.4001,0.4034,0.3642,0.3641,0.364,0.3639,0,0.3397,0.343,0.3481,0.3503,0.353,0.3605,0.3608,0.366,0.3642,0.3653,0.3778,0.3791,0.3851,0.3876,0.3846,0.4044,0.3981,0.3913,0.3838,0.4002,0.4043,0.4074,0.3658,0.3654,0.3651,0.3648,0,0,0.3556,0.3584,0.3595,0.3614,0.3647,0.3682,0.3801,0.3888,0.3957,0.3995,0.41,0.4211,0.4177,0.4205,0.4186,0.4277,0.447,0.418,0.418,0.4249,0.465,0.4507,0.4524,0.4429,0.4435,0.4441,0.4607,0,0.3699,0.3816,0.3793,0.3912,0.3973,0.3951,0.4053,0.4113,0.4146,0.424,0.4291,0.4374,0.4315,0.4336,0.4436,0.4455,0.4558,0.443,0.447,0.4472,0.4336,0.4558,0.4291,0.4408,0.4636,0.4641,0.4644,0,0.3844,0.3895,0.403,0.4068,0.4096,0.4163,0.4267,0.4342,0.4461,0.4482,0.4579,0.4576,0.4748,0.4628,0.4818,0.4728,0.4727,0.4731,0.4736,0.4554,0.4386,0.4279,0.4453,0.4293,0.4689,0.4686,0.4683,0,0.3937,0.404,0.4142,0.4165,0.4233,0.4292,0.4334,0.443,0.4495,0.4632,0.4681,0.4838,0.4896,0.4975,0.4977,0.491,0.5138,0.5032,0.4918,0.4905,0.4666,0.4621,0.4701,0.5186,0.5186,0.5186,0.5185,0,0.406,0.4132,0.4191,0.4241,0.4355,0.4361,0.4481,0.454,0.4642,0.473,0.48,0.4897,0.4981,0.5084,0.5083,0.5111,0.5231,0.5016,0.4974,0.4727,0.4688,0.4519,0.4477,0.5192,0.519,0.5189,0.5188,0,0.4118,0.4167,0.4269,0.4363,0.4389,0.4456,0.4525,0.4597,0.4695,0.4812,0.4859,0.4994,0.5122,0.5188,0.5306,0.522,0.5109,0.523,0.4919,0.4837,0.4531,0.451,0.4463,0.4344,0.5156,0.5154,0.5152,0,0.4174,0.4239,0.4335,0.4362,0.4398,0.4483,0.4528,0.4619,0.4677,0.4856,0.4913,0.5078,0.5161,0.5292,0.5199,0.5209,0.5063,0.4922,0.4758,0.455,0.4498,0.4358,0.4252,0.4528,0.4522,0.4516,0.4512,0,0.4254,0.4275,0.4314,0.4388,0.4434,0.4494,0.4564,0.4623,0.4723,0.4818,0.4949,0.5042,0.5129,0.4996,0.4966,0.4927,0.4661,0.4805,0.4692,0.4134,0.3892,0.3738,0.4369,0.4463,0.4468,0.4472,0.4474,0.4476,0.4274,0.43,0.4325,0.4369,0.4418,0.4462,0.4464,0.4531,0.4605,0.4641,0.4834,0.4802,0.4732,0.4651,0.4615,0.4268,0.4349,0.4038,0.4071,0.3979,0.3745,0.4264,0.4231,0.4235,0.4238,0.424,0.4242,0,0.4274,0.426,0.4301,0.4317,0.4317,0.438,0.4431,0.4378,0.4381,0.4409,0.4452,0.425,0.4096,0.4012,0.3716,0.3521,0.3394,0.3412,0.3163,0.3129,0.3668,0.3514,0.3199,0.3199,0.3199,0.3199,0.3199,0.32,0.4251,0.4229,0.4227,0.4188,0.4196,0.4144,0.4138,0.407,0.4028,0.3827,0.3617,0.3563,0.3514,0.3364,0.3081,0.3002,0.2802,0.2642,0.2737,0.3098,0.3158,0.3214,0.3058,0.2653,0.2653,0.1987,0.1982,0.1979]},{"header":{"parameterUnit":"m.s-1","parameterCategory":2,"la1":30.2991,"la2":30.254,"lo1":-89.0895,"lo2":-89.0444,"dy":0.0017,"dx":0.0017,"nx":28,"ny":28,"refTime":"2026-02-09T03:00:00:Z","depth":"0","parameterNumber":3,"parameterNumberName":"V-component_of_CURRENTS"},"data":[0,0,0,0,0,0,0,0,0,0,0,0,0,0,0,0,0,0,0,0,0,0,0,0,0,0,0,0,0,0,0,0,0,0,0,0,0,0,0,0,0,0,0,0,0,0,0,0,0,0,0,0,0,0,0,0,0,0,0.034,0.034,0,0.0302,0.0302,0.0301,0.0245,0.0244,0.0243,0.0243,0.014,0.0138,0.0136,0,0,0,0,0,0,0,0,0,0,0,0,0,0.0298,0.03,0.034,0.034,0.034,0.0302,0.0302,0.0301,0.0245,0.0244,0.0243,0.0242,0.014,0.0138,0.0136,0,0,0,0,0,0,0,0,0,0,0,0,0,0.0292,0.03,0.034,0.0309,0.0306,0.0303,0.0302,0.0301,0.0245,0.0244,0.0243,0.0242,0.0141,0.0138,0.0135,0.0141,0,0,0.0126,0.0125,0,0,0,0,0,0,0,0,0.0293,0.0294,0.0314,0.0311,0.0308,0.0279,0.0249,0.0245,0.0246,0.0266,0.0243,0.0241,0.0183,0.0176,0.0169,0.0136,0.0131,0.0126,0.0124,0.0123,0.0122,0,0,0,0,0,0,0,0.0293,0.0295,0.0323,0.0314,0.031,0.0274,0.0272,0.0248,0.0229,0.0264,0.026,0.026,0.018,0.0173,0.0166,0.013,0.0126,0.0123,0.0121,0.012,0.0098,0.01,0,0,0,0,0,0,0.0308,0.0296,0.0324,0.0322,0.0299,0.0276,0.0274,0.0288,0.023,0.0221,0.0261,0.0258,0.0178,0.017,0.0163,0.0179,0.0123,0.012,0.0118,0.0097,0.0099,0.01,0,0,0,0,0,0,0.0307,0.0311,0.0326,0.0308,0.0308,0.0279,0.0294,0.0288,0.0278,0.0229,0.0218,0.0258,0.0177,0.0167,0.0148,0.0174,0.0119,0.0116,0.0096,0.0098,0.0099,0.0203,0,0,0,0,0,0,0.0306,0.0312,0.0321,0.031,0.031,0.0339,0.0295,0.0288,0.0281,0.0276,0.0223,0.0212,0.0175,0.0153,0.0145,0.0169,0.0113,0.0094,0.0097,0.0099,0.0198,0.0208,0.0217,0,0,0,0,0,0.0305,0.0337,0.0322,0.0325,0.0326,0.034,0.0337,0.0309,0.0282,0.0293,0.0252,0.0214,0.0162,0.0151,0.0142,0.0166,0.0093,0.0096,0.0099,0.0194,0.0206,0.0217,0,0,0,0,0,0,0.033,0.0334,0.0318,0.035,0.0348,0.0332,0.0339,0.0317,0.0294,0.0281,0.0227,0.0215,0.0211,0.0174,0.0164,0.0166,0.0122,0.0123,0.0198,0.0209,0.0218,0.0224,0.0111,0,0,0,0,0,0.034,0.0359,0.0356,0.0379,0.0382,0.0358,0.0357,0.034,0.0321,0.0309,0.0275,0.0237,0.0217,0.0201,0.0178,0.0176,0.0152,0.0186,0.0195,0.0203,0.0202,0.0191,0.0199,0.0109,0.0109,0.0109,0,0,0.0355,0.036,0.0369,0.0384,0.0377,0.0392,0.0354,0.0364,0.0371,0.0302,0.03,0.027,0.0224,0.0227,0.0221,0.0197,0.0223,0.0207,0.0214,0.0208,0.0194,0.0203,0.0211,0.0111,0.0111,0.011,0,0,0.0393,0.0401,0.0422,0.0429,0.0428,0.0422,0.0428,0.0418,0.0408,0.0407,0.0362,0.0348,0.0313,0.0292,0.0274,0.032,0.0275,0.0313,0.0361,0.0351,0.0359,0.0364,0.0373,0.0379,0.0315,0.0315,0.0315,0,0.0407,0.0431,0.0431,0.0453,0.0457,0.0439,0.0458,0.046,0.0443,0.0436,0.0419,0.0378,0.0346,0.0341,0.036,0.0342,0.0331,0.0324,0.0364,0.0369,0.0374,0.0381,0.0386,0.0321,0.032,0.0319,0.0319,0,0.0453,0.0469,0.0489,0.0505,0.0517,0.0536,0.0537,0.0544,0.0528,0.0517,0.0513,0.0479,0.0446,0.0449,0.0417,0.0435,0.0418,0.0382,0.0338,0.0389,0.0394,0.0397,0.0328,0.0326,0.0325,0.0323,0,0,0.0479,0.0512,0.0516,0.0518,0.0541,0.0553,0.0582,0.0591,0.0594,0.0592,0.0594,0.0579,0.0552,0.053,0.0497,0.0496,0.0534,0.0458,0.0455,0.0471,0.0528,0.0515,0.0517,0.0503,0.0504,0.0504,0.053,0,0.0503,0.0548,0.056,0.059,0.0604,0.0606,0.063,0.0638,0.0637,0.0644,0.0623,0.0616,0.0586,0.0573,0.0571,0.0542,0.0542,0.0531,0.0471,0.0469,0.0454,0.052,0.0507,0.0528,0.0532,0.0533,0.0533,0,0.0525,0.0551,0.0591,0.0608,0.0616,0.0636,0.0654,0.0672,0.0686,0.0685,0.0683,0.0664,0.0674,0.0632,0.0621,0.0615,0.0578,0.0556,0.0556,0.0503,0.0461,0.047,0.0533,0.0371,0.0538,0.0537,0.0537,0,0.0516,0.0559,0.0588,0.06,0.0634,0.0645,0.0659,0.0678,0.0699,0.0711,0.0732,0.0721,0.0731,0.0692,0.0669,0.0639,0.0659,0.0603,0.0556,0.0556,0.0512,0.0506,0.041,0.0579,0.0579,0.0579,0.0579,0,0.052,0.0534,0.0585,0.0599,0.0631,0.0644,0.0673,0.0687,0.0717,0.0766,0.0748,0.0799,0.0746,0.0756,0.0701,0.0668,0.0684,0.0581,0.0563,0.0551,0.0548,0.0375,0.0281,0.058,0.058,0.0579,0.0579,0,0.0495,0.0529,0.0564,0.0612,0.0628,0.0648,0.0696,0.0723,0.0746,0.0815,0.0829,0.087,0.0907,0.086,0.082,0.0722,0.0588,0.0648,0.0653,0.0634,0.0408,0.0322,0.0206,0.0138,0.0589,0.0589,0.0589,0,0.0482,0.0504,0.0581,0.0619,0.0641,0.0676,0.0712,0.0737,0.0783,0.0882,0.0931,0.0986,0.1087,0.1033,0.0882,0.0791,0.0626,0.0641,0.0564,0.0409,0.0299,0.023,0.0176,0.0561,0.0561,0.0561,0.056,0,0.0468,0.0507,0.0555,0.0641,0.0688,0.074,0.0794,0.0841,0.0903,0.1002,0.116,0.1258,0.1216,0.1158,0.098,0.0866,0.0506,0.0629,0.0461,0.0267,0.0194,0.0116,0.0541,0.0558,0.0558,0.0558,0.0558,0.0558,0.0473,0.0512,0.0599,0.0673,0.0736,0.0819,0.0884,0.098,0.1109,0.1323,0.1373,0.1605,0.1381,0.1178,0.0965,0.0503,0.0515,0.0347,0.026,0.021,0.0118,0.0549,0.0541,0.0541,0.0541,0.0541,0.0541,0,0.0495,0.0551,0.0626,0.0731,0.081,0.0837,0.0958,0.1064,0.1268,0.1535,0.1741,0.1814,0.1512,0.1142,0.0524,0.0194,0.0056,0.0002,-0.0116,-0.015,0.023,0.02,0.0126,0.0126,0.0126,0.0126,0.0126,0.0126,0.0518,0.0595,0.0639,0.0777,0.0853,0.0989,0.1077,0.1266,0.1483,0.1873,0.2102,0.2249,0.191,0.0751,-0.0012,-0.0183,-0.0434,-0.0476,-0.0581,-0.0355,-0.0331,-0.0307,-0.0359,-0.0549,-0.055,-0.093,-0.0934,-0.0937]}],[{"header":{"parameterUnit":"m.s-1","parameterCategory":2,"la1":30.2991,"la2":30.254,"lo1":-89.0895,"lo2":-89.0444,"dy":0.0017,"dx":0.0017,"nx":28,"ny":28,"refTime":"2026-02-09T03:00:00:Z","depth":"2","parameterNumber":2,"parameterNumberName":"U-component_of_CURRENTS"},"data":[0,0,0,0,0,0,0,0,0,0,0,0,0,0,0,0,0,0,0,0,0,0,0,0,0,0,0,0,0,0,0,0,0,0,0,0,0,0,0,0,0,0,0,0,0,0,0,0,0,0,0,0,0,0,0,0,0,0,0.2051,0.2051,0,0.2059,0.2059,0.2059,0.2053,0.2052,0.2052,0.2052,0.2074,0.2075,0.2076,0,0,0,0,0,0,0,0,0,0,0,0,0,0.2021,0.2021,0.2051,0.2051,0.2051,0.2059,0.2059,0.2059,0.2053,0.2052,0.2052,0.2052,0.2074,0.2075,0.2076,0,0,0,0,0,0,0,0,0,0,0,0,0,0.2031,0.2021,0.2051,0.205,0.205,0.2059,0.2059,0.2059,0.2053,0.2052,0.2052,0.2052,0.2074,0.2075,0.2076,0.2088,0,0,0.2079,0.208,0,0,0,0,0,0,0,0,0.203,0.2032,0.205,0.205,0.205,0.2055,0.2056,0.2069,0.2053,0.2051,0.2052,0.2052,0.207,0.2071,0.2072,0.2089,0.209,0.2079,0.208,0.2081,0.2081,0,0,0,0,0,0,0,0.2029,0.2031,0.2053,0.205,0.205,0.2046,0.2047,0.2058,0.2061,0.2051,0.2051,0.2053,0.207,0.2071,0.2072,0.209,0.2079,0.208,0.2081,0.2081,0.2205,0.2208,0,0,0,0,0,0,0.2031,0.2031,0.2053,0.2053,0.204,0.2046,0.2048,0.2053,0.2061,0.2062,0.2053,0.2053,0.2069,0.2071,0.2073,0.215,0.2081,0.2082,0.2082,0.2203,0.2206,0.2208,0,0,0,0,0,0,0.2031,0.2033,0.2052,0.2043,0.2045,0.2047,0.2053,0.2053,0.2069,0.2063,0.2064,0.2071,0.2069,0.2072,0.2105,0.2148,0.2082,0.2083,0.2199,0.2203,0.2207,0.2264,0,0,0,0,0,0,0.203,0.2033,0.2046,0.2043,0.2045,0.2077,0.2054,0.2054,0.2071,0.2071,0.2078,0.2079,0.2069,0.2103,0.2106,0.2149,0.2084,0.2196,0.2201,0.2206,0.2259,0.227,0.2279,0,0,0,0,0,0.2029,0.2048,0.2046,0.2049,0.206,0.2079,0.2081,0.208,0.2072,0.2091,0.2095,0.2079,0.2137,0.2106,0.2108,0.2153,0.2194,0.22,0.2205,0.2255,0.2268,0.2278,0,0,0,0,0,0,0.2047,0.2049,0.2047,0.2067,0.2081,0.2079,0.2096,0.2093,0.211,0.2116,0.2101,0.2103,0.2163,0.215,0.2116,0.2207,0.2168,0.2175,0.2205,0.2217,0.2226,0.219,0.2085,0,0,0,0,0,0.2055,0.2067,0.2073,0.2092,0.2101,0.2101,0.2111,0.2115,0.2125,0.2132,0.2134,0.2151,0.2188,0.2193,0.2225,0.2254,0.2274,0.2291,0.2301,0.2309,0.2285,0.2375,0.239,0.2228,0.2228,0.2228,0,0,0.2068,0.2071,0.2079,0.2097,0.2104,0.213,0.2107,0.2135,0.2163,0.2133,0.2174,0.2194,0.2211,0.2261,0.2285,0.225,0.2375,0.2316,0.2323,0.2294,0.2383,0.2398,0.2412,0.2232,0.2231,0.223,0,0,0.2102,0.2104,0.2129,0.2141,0.2163,0.2166,0.218,0.2192,0.2207,0.2249,0.2249,0.2283,0.2322,0.2335,0.235,0.243,0.2441,0.2456,0.2451,0.2541,0.2554,0.2566,0.2641,0.2659,0.2439,0.2439,0.2439,0,0.212,0.2138,0.2142,0.2169,0.2178,0.2186,0.2216,0.2241,0.2264,0.2275,0.2277,0.2344,0.2359,0.2409,0.2431,0.2451,0.2496,0.2401,0.2552,0.2564,0.2575,0.2649,0.2668,0.2443,0.2442,0.2442,0.2442,0,0.2164,0.2182,0.2199,0.2229,0.2253,0.2275,0.2305,0.2324,0.2341,0.2362,0.2424,0.2443,0.2478,0.2497,0.248,0.2563,0.2571,0.2572,0.2515,0.2594,0.2668,0.2687,0.2448,0.2447,0.2446,0.2445,0,0,0.2169,0.2219,0.2217,0.2238,0.2276,0.2298,0.2344,0.2377,0.2408,0.2446,0.2496,0.2539,0.255,0.2566,0.2568,0.26,0.2728,0.2603,0.2606,0.2663,0.2927,0.2828,0.2839,0.2761,0.2764,0.2767,0.2957,0,0.219,0.2233,0.2259,0.2308,0.233,0.2346,0.2389,0.2429,0.2468,0.2527,0.2554,0.2629,0.2586,0.2619,0.2653,0.2719,0.2775,0.2675,0.2851,0.2855,0.2746,0.2856,0.2605,0.2744,0.2975,0.2978,0.298,0,0.2201,0.2227,0.2269,0.2326,0.234,0.238,0.2421,0.2478,0.2555,0.2581,0.2636,0.2694,0.276,0.2731,0.286,0.2803,0.2868,0.2898,0.2908,0.2793,0.2789,0.2698,0.2769,0.3012,0.3009,0.3007,0.3005,0,0.2157,0.2225,0.225,0.2267,0.2343,0.2366,0.2419,0.2487,0.254,0.2645,0.2691,0.2786,0.2864,0.2941,0.3006,0.2966,0.3149,0.3125,0.3095,0.309,0.2893,0.2864,0.3239,0.3238,0.3238,0.3237,0.3237,0,0.2134,0.2163,0.2235,0.2244,0.2288,0.2371,0.244,0.2473,0.2584,0.2658,0.2743,0.2806,0.2922,0.3036,0.3075,0.314,0.3235,0.3106,0.3136,0.2909,0.288,0.3107,0.309,0.3245,0.3243,0.3242,0.324,0,0.209,0.2126,0.2159,0.2233,0.2265,0.2305,0.2439,0.2503,0.2592,0.2694,0.2743,0.288,0.3011,0.311,0.3261,0.3233,0.3305,0.331,0.3022,0.3011,0.3171,0.3155,0.3307,0.3305,0.3303,0.3302,0.3301,0,0.2088,0.2081,0.2131,0.2162,0.2204,0.2293,0.2359,0.2471,0.2539,0.2713,0.2754,0.2938,0.3009,0.3183,0.3192,0.3273,0.333,0.307,0.2923,0.3166,0.3181,0.3167,0.3153,0.2717,0.2711,0.2706,0.2702,0,0.2064,0.2053,0.2073,0.2122,0.2182,0.2264,0.2369,0.2385,0.2531,0.2598,0.2714,0.2809,0.2974,0.2929,0.3021,0.302,0.3025,0.2973,0.3357,0.2711,0.2618,0.2629,0.2634,0.266,0.2664,0.2668,0.267,0.2671,0.2027,0.2027,0.2039,0.2064,0.2156,0.2217,0.2213,0.2318,0.237,0.2426,0.2587,0.2631,0.2713,0.2707,0.2659,0.2626,0.2827,0.27,0.2712,0.273,0.2601,0.2506,0.2505,0.2508,0.2511,0.2513,0.2516,0,0.197,0.1977,0.2011,0.2017,0.2052,0.2166,0.2213,0.2153,0.2134,0.2263,0.2337,0.219,0.2198,0.2284,0.2162,0.2169,0.2123,0.2085,0.2002,0.2047,0.2087,0.192,0.1647,0.1644,0.1641,0.1639,0,0,0.1943,0.1929,0.192,0.1897,0.1944,0.1971,0.1959,0.1866,0.1884,0.1836,0.1874,0.2103,0.2213,0.1897,0.1868,0.1731,0.1865,0.1662,0.2367,0.2315,0.235,0.2461,0.2259,0,0,0,0,0]},{"header":{"parameterUnit":"m.s-1","parameterCategory":2,"la1":30.2991,"la2":30.254,"lo1":-89.0895,"lo2":-89.0444,"dy":0.0017,"dx":0.0017,"nx":28,"ny":28,"refTime":"2026-02-09T03:00:00:Z","depth":"2","parameterNumber":3,"parameterNumberName":"V-component_of_CURRENTS"},"data":[0,0,0,0,0,0,0,0,0,0,0,0,0,0,0,0,0,0,0,0,0,0,0,0,0,0,0,0,0,0,0,0,0,0,0,0,0,0,0,0,0,0,0,0,0,0,0,0,0,0,0,0,0,0,0,0,0,0,0.0188,0.0188,0,0.0154,0.0154,0.0153,0.0125,0.0124,0.0124,0.0124,0.005,0.0049,0.0047,0,0,0,0,0,0,0,0,0,0,0,0,0,0.0172,0.0172,0.0188,0.0188,0.0188,0.0154,0.0154,0.0153,0.0125,0.0124,0.0124,0.0124,0.0051,0.0049,0.0047,0,0,0,0,0,0,0,0,0,0,0,0,0,0.0161,0.0173,0.0188,0.017,0.0169,0.0154,0.0154,0.0153,0.0125,0.0124,0.0124,0.0124,0.0052,0.0049,0.0046,0.0036,0,0,0.0038,0.0037,0,0,0,0,0,0,0,0,0.0162,0.0162,0.0173,0.0172,0.017,0.0144,0.0121,0.0112,0.0125,0.014,0.0124,0.0124,0.0079,0.0074,0.0067,0.0032,0.0029,0.0038,0.0036,0.0035,0.0034,0,0,0,0,0,0,0,0.0163,0.0163,0.0174,0.0173,0.0171,0.0145,0.0143,0.0119,0.011,0.0139,0.0137,0.0135,0.0078,0.007,0.0065,0.0028,0.0038,0.0036,0.0034,0.0033,-0.0021,-0.0021,0,0,0,0,0,0,0.0173,0.0164,0.0175,0.0173,0.0166,0.0145,0.0144,0.0152,0.0111,0.0105,0.0135,0.0134,0.0075,0.0068,0.0062,0.0056,0.0035,0.0033,0.0031,-0.0022,-0.0021,-0.0021,0,0,0,0,0,0,0.0173,0.0175,0.0176,0.0168,0.0166,0.0147,0.0155,0.0151,0.0146,0.0109,0.0102,0.0135,0.0074,0.0066,0.0047,0.0053,0.0031,0.0029,-0.0022,-0.0021,-0.0021,0.0037,0,0,0,0,0,0,0.0173,0.0175,0.0181,0.0169,0.0167,0.0176,0.0156,0.0151,0.0146,0.0144,0.0107,0.0099,0.0073,0.0051,0.0044,0.0048,0.0027,-0.0022,-0.0022,-0.0021,0.0035,0.004,0.0043,0,0,0,0,0,0.0173,0.0185,0.0182,0.0183,0.0178,0.0176,0.0173,0.0156,0.0147,0.015,0.0124,0.0101,0.0048,0.0049,0.0041,0.0045,-0.0022,-0.0022,-0.0021,0.0034,0.0039,0.0043,0,0,0,0,0,0,0.0177,0.0183,0.018,0.0192,0.0188,0.0172,0.0171,0.0162,0.0144,0.0139,0.0104,0.0095,0.0079,0.0054,0.0056,0.0029,0.0008,0.0007,0.0053,0.0057,0.0061,0.0085,0.0025,0,0,0,0,0,0.0183,0.0197,0.0194,0.0203,0.0203,0.0188,0.0184,0.0176,0.016,0.0152,0.0128,0.0099,0.0074,0.0061,0.0035,0.0022,0.0004,0.0018,0.0022,0.0025,0.0038,0.0012,0.0016,-0.002,-0.002,-0.002,0,0,0.0186,0.0192,0.0198,0.0205,0.0198,0.0211,0.0185,0.0185,0.0193,0.0146,0.0145,0.0112,0.0073,0.0059,0.0049,0.0039,0.0027,0.0026,0.0029,0.004,0.0013,0.0017,0.002,-0.002,-0.002,-0.002,0,0,0.0207,0.0206,0.0227,0.023,0.023,0.0224,0.0229,0.0219,0.021,0.0205,0.0171,0.0147,0.0113,0.0087,0.0069,0.0079,0.0049,0.0067,0.0107,0.0082,0.0085,0.0087,0.0077,0.0078,0.007,0.007,0.007,0,0.0211,0.0241,0.023,0.0253,0.0262,0.0236,0.0263,0.025,0.0235,0.0234,0.0213,0.0166,0.0128,0.0112,0.0113,0.009,0.0076,0.0093,0.0088,0.009,0.0092,0.0081,0.0081,0.0073,0.0072,0.0072,0.0072,0,0.0253,0.0274,0.0285,0.0311,0.0317,0.0332,0.0322,0.0321,0.0306,0.0294,0.0276,0.0223,0.0199,0.0176,0.0147,0.0138,0.0127,0.0097,0.008,0.0099,0.0086,0.0086,0.0077,0.0076,0.0075,0.0074,0,0,0.0276,0.0311,0.0317,0.0344,0.0352,0.0367,0.0376,0.0385,0.0406,0.0363,0.0381,0.0316,0.0286,0.0263,0.0217,0.0189,0.0181,0.0154,0.0151,0.0153,0.014,0.011,0.0106,0.0152,0.0152,0.0152,0.013,0,0.0316,0.038,0.038,0.0435,0.0468,0.0452,0.0472,0.0471,0.0461,0.047,0.04,0.0393,0.0319,0.0311,0.027,0.0209,0.0182,0.0191,0.0115,0.0113,0.009,0.0105,0.0113,0.0093,0.0129,0.0129,0.0129,0,0.0366,0.0405,0.0471,0.0518,0.0531,0.0553,0.0592,0.0606,0.0596,0.0594,0.0561,0.0507,0.0456,0.0392,0.0292,0.0303,0.0231,0.0175,0.0172,0.0125,0.0081,0.0076,0.009,0.0128,0.0128,0.0128,0.0128,0,0.0415,0.0469,0.0529,0.0545,0.059,0.0612,0.0631,0.0643,0.0684,0.0673,0.0701,0.0614,0.0596,0.048,0.0346,0.0324,0.0245,0.0197,0.0101,0.0099,0.0082,0.0078,0.0131,0.0131,0.0131,0.0131,0.0131,0,0.0472,0.0517,0.0556,0.0594,0.0668,0.0671,0.0743,0.0758,0.0798,0.0866,0.0767,0.0798,0.0619,0.0539,0.0396,0.0255,0.0278,0.0119,0.0091,0.0103,0.0101,0.0108,0.0105,0.013,0.013,0.013,0.013,0,0.0523,0.0547,0.0625,0.068,0.0698,0.0755,0.0831,0.0895,0.0914,0.1003,0.1005,0.0952,0.0843,0.0657,0.0488,0.0341,0.0194,0.0137,0.0169,0.0144,0.0054,0.0054,0.0029,0.0028,0.0027,0.0026,0.0025,0,0.0553,0.0603,0.0693,0.075,0.0778,0.0849,0.0913,0.0958,0.1039,0.1102,0.1163,0.1081,0.1034,0.0768,0.0495,0.0243,0.0209,0.0089,0.0031,0.0068,0.0043,0.0046,0.0048,0.0039,0.0038,0.0037,0.0037,0,0.062,0.0656,0.0722,0.0843,0.0922,0.1019,0.1109,0.119,0.1257,0.1319,0.139,0.135,0.1091,0.0823,0.047,0.0294,0.012,0.007,0.011,0.0057,0.0073,0.0049,0.0052,0.0033,0.0033,0.0034,0.0034,0.0034,0.0665,0.0728,0.0825,0.0939,0.1041,0.1181,0.1274,0.1368,0.1491,0.158,0.1544,0.1472,0.1179,0.0702,0.0411,0.0095,0.0101,-0.0021,-0.0017,-0.0014,-0.0015,-0.0003,-0.0056,-0.0056,-0.0056,-0.0056,-0.0056,0,0.0722,0.0801,0.0914,0.1062,0.1195,0.1237,0.1405,0.1489,0.1622,0.1658,0.1679,0.1371,0.1073,0.0738,0.0262,-0.0014,-0.0033,-0.0097,-0.0062,-0.0057,-0.0052,-0.0054,-0.0105,-0.0106,-0.0107,-0.0107,0,0,0.0759,0.0871,0.0934,0.116,0.1272,0.1448,0.1551,0.1649,0.1699,0.1706,0.1639,0.1555,0.1144,0.0797,0.0425,0.0158,0.0117,0.0106,0.0171,0.0261,0.027,0.0013,0.0019,0,0,0,0,0]}],[{"header":{"parameterUnit":"m.s-1","parameterCategory":2,"la1":30.2991,"la2":30.254,"lo1":-89.0895,"lo2":-89.0444,"dy":0.0017,"dx":0.0017,"nx":28,"ny":28,"refTime":"2026-02-09T03:00:00:Z","depth":"4","parameterNumber":2,"parameterNumberName":"U-component_of_CURRENTS"},"data":[0,0,0,0,0,0,0,0,0,0,0,0,0,0,0,0,0,0,0,0,0,0,0,0,0,0,0,0,0,0,0,0,0,0,0,0,0,0,0,0,0,0,0,0,0,0,0,0,0,0,0,0,0,0,0,0,0,0,0.1293,0.1294,0,0.1321,0.1321,0.1321,0.1349,0.1349,0.135,0.135,0.1384,0.1384,0.1384,0,0,0,0,0,0,0,0,0,0,0,0,0,0.1245,0.1246,0.1293,0.1294,0.1294,0.1321,0.1321,0.1321,0.1349,0.1349,0.135,0.135,0.1384,0.1384,0.1384,0,0,0,0,0,0,0,0,0,0,0,0,0,0.1267,0.1246,0.1293,0.1312,0.1314,0.1321,0.1321,0.1321,0.1348,0.1349,0.135,0.1351,0.1383,0.1384,0.1385,0.1372,0,0,0.1386,0.1387,0,0,0,0,0,0,0,0,0.1266,0.1269,0.1309,0.1311,0.1313,0.1334,0.1316,0.1339,0.1348,0.1334,0.135,0.1351,0.1368,0.137,0.1371,0.1374,0.1375,0.1386,0.1387,0.1387,0.1387,0,0,0,0,0,0,0,0.1264,0.1268,0.1302,0.131,0.1312,0.1313,0.1317,0.1321,0.1345,0.1335,0.1338,0.1343,0.1369,0.137,0.1372,0.1376,0.1386,0.1387,0.1387,0.1388,0.1447,0.1449,0,0,0,0,0,0,0.1265,0.1266,0.1302,0.1303,0.1293,0.1314,0.1318,0.1325,0.1345,0.1349,0.1342,0.1344,0.1369,0.1371,0.1373,0.143,0.1387,0.1388,0.1388,0.1446,0.1448,0.1449,0,0,0,0,0,0,0.1264,0.1268,0.13,0.1287,0.1291,0.1314,0.1321,0.1325,0.1354,0.1351,0.1355,0.1371,0.1369,0.1372,0.1397,0.1429,0.1388,0.1388,0.1445,0.1447,0.1448,0.1499,0,0,0,0,0,0,0.1262,0.1267,0.1284,0.1287,0.1292,0.132,0.1321,0.1325,0.1355,0.1359,0.1376,0.1378,0.137,0.1396,0.1397,0.1429,0.1389,0.1443,0.1446,0.1448,0.1496,0.1503,0.1508,0,0,0,0,0,0.126,0.1274,0.1285,0.129,0.1311,0.1321,0.1324,0.1341,0.1356,0.137,0.1383,0.1379,0.1412,0.1397,0.1399,0.1431,0.1442,0.1445,0.1448,0.1493,0.1501,0.1508,0,0,0,0,0,0,0.126,0.1279,0.129,0.131,0.1324,0.1327,0.1347,0.1357,0.1378,0.1393,0.1388,0.1391,0.1427,0.1421,0.1404,0.1456,0.1429,0.1432,0.1463,0.1471,0.1477,0.1477,0.1389,0,0,0,0,0,0.1268,0.129,0.13,0.1321,0.1331,0.1346,0.1358,0.1371,0.1384,0.1396,0.1409,0.1423,0.1434,0.1446,0.1454,0.1478,0.1485,0.1503,0.1509,0.1514,0.1516,0.1556,0.1566,0.1458,0.1458,0.1458,0,0,0.1272,0.129,0.1301,0.1324,0.134,0.1354,0.1356,0.1385,0.1405,0.1395,0.1438,0.1447,0.1445,0.1474,0.149,0.1477,0.1551,0.1517,0.1522,0.1521,0.156,0.1571,0.158,0.146,0.146,0.1459,0,0,0.1281,0.1311,0.1326,0.1344,0.1375,0.1383,0.1398,0.142,0.1442,0.1476,0.1476,0.1501,0.1525,0.1526,0.1528,0.1572,0.1581,0.1587,0.162,0.1659,0.1669,0.1677,0.1707,0.1718,0.1591,0.1591,0.1591,0,0.1287,0.1309,0.1332,0.1351,0.1369,0.1399,0.1414,0.1438,0.1469,0.1486,0.1501,0.1544,0.1546,0.1569,0.1588,0.1586,0.1612,0.1591,0.1668,0.1676,0.1683,0.1713,0.1723,0.1594,0.1594,0.1593,0.1593,0,0.1293,0.1326,0.134,0.1375,0.1396,0.1421,0.145,0.1483,0.1519,0.154,0.1591,0.1601,0.1625,0.1636,0.1626,0.168,0.1683,0.1671,0.1649,0.1697,0.1725,0.1735,0.1598,0.1597,0.1596,0.1595,0,0,0.1268,0.133,0.1339,0.1357,0.1415,0.1421,0.1471,0.1505,0.1541,0.159,0.1632,0.1661,0.1685,0.1689,0.1692,0.1726,0.1801,0.1731,0.1731,0.176,0.19,0.178,0.178,0.1816,0.1818,0.1819,0.19,0,0.1268,0.13,0.1338,0.1374,0.1389,0.1438,0.1477,0.1519,0.1572,0.1625,0.1657,0.1707,0.1701,0.1732,0.1765,0.1794,0.1831,0.178,0.1848,0.185,0.1737,0.1788,0.1825,0.1908,0.191,0.1912,0.1913,0,0.1251,0.1281,0.1311,0.1369,0.1382,0.1413,0.1477,0.152,0.1601,0.165,0.1711,0.175,0.1809,0.1802,0.1884,0.1862,0.1888,0.1906,0.191,0.1784,0.1749,0.1848,0.1932,0.193,0.1929,0.1928,0.1927,0,0.1193,0.1257,0.1279,0.13,0.1372,0.1401,0.1447,0.1528,0.158,0.1682,0.1739,0.1808,0.1867,0.1913,0.196,0.1942,0.2048,0.202,0.1933,0.1926,0.1987,0.1977,0.2079,0.2079,0.2079,0.2078,0.2078,0,0.1157,0.1179,0.1259,0.1269,0.1308,0.1374,0.1436,0.1495,0.1604,0.1668,0.1757,0.1817,0.1907,0.1973,0.1994,0.1998,0.208,0.1946,0.194,0.2007,0.1998,0.1994,0.1983,0.2081,0.2081,0.208,0.208,0,0.1079,0.1136,0.1167,0.125,0.128,0.1308,0.143,0.1472,0.1595,0.1687,0.173,0.1858,0.1944,0.2011,0.2093,0.2034,0.2051,0.2032,0.2112,0.2108,0.1893,0.1884,0.1934,0.193,0.1927,0.1925,0.1923,0,0.1039,0.1047,0.1135,0.1158,0.1201,0.127,0.1315,0.1449,0.1511,0.1692,0.1723,0.1859,0.1926,0.1951,0.2022,0.2053,0.2027,0.2014,0.1931,0.189,0.188,0.1876,0.1871,0.1918,0.1917,0.1917,0.1916,0,0.096,0.1002,0.1031,0.1084,0.1132,0.1171,0.126,0.1305,0.1463,0.1595,0.1687,0.174,0.1831,0.1885,0.193,0.1942,0.2005,0.1982,0.1987,0.1909,0.1871,0.1863,0.1862,0.1905,0.1907,0.1908,0.1908,0,0.0909,0.0908,0.0958,0.0995,0.1048,0.1055,0.1115,0.1203,0.129,0.1513,0.1541,0.1684,0.1819,0.1829,0.1868,0.1875,0.1836,0.1756,0.1772,0.1784,0.1694,0.1621,0.158,0,0,0,0,0,0.0852,0.0839,0.0862,0.0887,0.0934,0.0962,0.1068,0.1141,0.1317,0.1346,0.145,0.1532,0.1603,0.1677,0.1654,0.1777,0.1823,0.1738,0.1733,0.1848,0.186,0.1766,0,0,0,0,0,0,0.081,0.0825,0.0827,0.0796,0.0793,0.0824,0.0883,0.0992,0.1036,0.1227,0.1285,0.1424,0.1523,0.1604,0.162,0.1641,0.1601,0.1839,0.1834,0.1841,0.1852,0.1862,0.1769,0,0,0,0,0]},{"header":{"parameterUnit":"m.s-1","parameterCategory":2,"la1":30.2991,"la2":30.254,"lo1":-89.0895,"lo2":-89.0444,"dy":0.0017,"dx":0.0017,"nx":28,"ny":28,"refTime":"2026-02-09T03:00:00:Z","depth":"4","parameterNumber":3,"parameterNumberName":"V-component_of_CURRENTS"},"data":[0,0,0,0,0,0,0,0,0,0,0,0,0,0,0,0,0,0,0,0,0,0,0,0,0,0,0,0,0,0,0,0,0,0,0,0,0,0,0,0,0,0,0,0,0,0,0,0,0,0,0,0,0,0,0,0,0,0,0.0138,0.0138,0,0.0118,0.0118,0.0117,0.0105,0.0105,0.0105,0.0105,0.0059,0.0058,0.0057,0,0,0,0,0,0,0,0,0,0,0,0,0,0.0127,0.0128,0.0138,0.0138,0.0138,0.0118,0.0118,0.0117,0.0105,0.0105,0.0105,0.0105,0.006,0.0058,0.0057,0,0,0,0,0,0,0,0,0,0,0,0,0,0.0122,0.0128,0.0138,0.013,0.0129,0.0118,0.0118,0.0117,0.0105,0.0105,0.0105,0.0105,0.006,0.0059,0.0057,0.0045,0,0,0.0051,0.005,0,0,0,0,0,0,0,0,0.0122,0.0122,0.0131,0.013,0.0129,0.0115,0.0097,0.0092,0.0105,0.0114,0.0105,0.0106,0.0076,0.0073,0.0068,0.0043,0.0041,0.0051,0.005,0.0049,0.0048,0,0,0,0,0,0,0,0.0122,0.0122,0.0129,0.0131,0.013,0.0114,0.0114,0.0096,0.0094,0.0113,0.0112,0.0111,0.0075,0.007,0.0067,0.004,0.0051,0.0049,0.0048,0.0047,0.0003,0.0003,0,0,0,0,0,0,0.0129,0.0123,0.013,0.0129,0.0127,0.0114,0.0114,0.0119,0.0095,0.0091,0.0111,0.0111,0.0073,0.0069,0.0065,0.0062,0.0049,0.0047,0.0046,0.0003,0.0003,0.0003,0,0,0,0,0,0,0.0128,0.013,0.0131,0.0126,0.0125,0.0115,0.0121,0.0119,0.0118,0.0094,0.009,0.0113,0.0073,0.0068,0.0055,0.0059,0.0046,0.0045,0.0003,0.0003,0.0003,0.0046,0,0,0,0,0,0,0.0128,0.013,0.0135,0.0126,0.0125,0.013,0.0121,0.0118,0.0117,0.0116,0.0094,0.0089,0.0073,0.0058,0.0053,0.0057,0.0043,0.0004,0.0003,0.0003,0.0045,0.0048,0.005,0,0,0,0,0,0.0128,0.0136,0.0135,0.0136,0.0133,0.013,0.0128,0.012,0.0117,0.0119,0.0104,0.009,0.0053,0.0056,0.0051,0.0054,0.0004,0.0003,0.0003,0.0044,0.0047,0.005,0,0,0,0,0,0,0.013,0.0135,0.0134,0.0142,0.0139,0.0128,0.0128,0.0124,0.0114,0.0113,0.0091,0.0085,0.0074,0.0056,0.006,0.004,0.0026,0.0024,0.0058,0.0061,0.0064,0.0086,0.0042,0,0,0,0,0,0.0134,0.0144,0.0141,0.0147,0.0147,0.0139,0.0137,0.0133,0.0123,0.0119,0.0105,0.0085,0.0068,0.006,0.0041,0.0032,0.0011,0.0029,0.0031,0.0034,0.0047,0.0014,0.0015,0.0003,0.0003,0.0003,0,0,0.0135,0.014,0.0144,0.0149,0.0145,0.0156,0.0138,0.0138,0.0147,0.0115,0.0119,0.0093,0.0066,0.0056,0.0049,0.0044,0.0024,0.0033,0.0036,0.0048,0.0014,0.0016,0.0017,0.0003,0.0003,0.0003,0,0,0.015,0.0148,0.0166,0.0168,0.0169,0.0166,0.0169,0.0163,0.0159,0.0156,0.0134,0.0116,0.0092,0.0075,0.0063,0.0067,0.0037,0.0057,0.0091,0.0059,0.006,0.006,0.003,0.0028,0.006,0.006,0.006,0,0.0154,0.0179,0.0168,0.0186,0.0196,0.0175,0.0199,0.0189,0.018,0.018,0.0164,0.0129,0.0103,0.0093,0.0094,0.0075,0.0052,0.0083,0.0063,0.0063,0.0063,0.0032,0.0029,0.0062,0.0062,0.0062,0.0061,0,0.0186,0.0206,0.0214,0.0237,0.0242,0.0255,0.0247,0.0246,0.0237,0.0228,0.0213,0.0173,0.0157,0.0138,0.0119,0.0107,0.0088,0.0069,0.0059,0.0067,0.0034,0.003,0.0065,0.0064,0.0064,0.0063,0,0,0.0205,0.0234,0.024,0.0265,0.0274,0.0285,0.0294,0.0302,0.0315,0.0284,0.0294,0.025,0.0226,0.0211,0.0175,0.0146,0.0118,0.0113,0.0111,0.0091,0.0047,0.0028,0.0021,0.0093,0.0093,0.0092,0.0022,0,0.024,0.0292,0.0295,0.0344,0.0372,0.036,0.0375,0.0373,0.0361,0.0359,0.0308,0.03,0.0253,0.0246,0.0208,0.0142,0.011,0.0139,0.0037,0.0034,0.0021,0.0017,0.0091,0.0019,0.0018,0.0018,0.0017,0,0.028,0.0313,0.037,0.0412,0.0423,0.0445,0.0471,0.0482,0.0463,0.0453,0.0427,0.0383,0.034,0.0296,0.0192,0.0212,0.014,0.0082,0.0078,0.0046,0.0007,0.0008,0.0009,0.001,0.0011,0.0011,0.0012,0,0.0315,0.0368,0.042,0.0434,0.0472,0.0495,0.0514,0.0513,0.0536,0.0516,0.0523,0.0453,0.0426,0.0327,0.0202,0.0199,0.0079,0.0057,-0.0029,-0.0031,-0.0011,-0.0011,-0.0014,-0.0013,-0.0013,-0.0013,-0.0013,0,0.0358,0.0399,0.0443,0.0474,0.0538,0.0544,0.0602,0.0605,0.0619,0.0648,0.0578,0.0573,0.0432,0.0341,0.0224,0.0085,0.0092,-0.0018,-0.0049,0.0007,0.001,-0.0014,-0.0013,-0.0016,-0.0015,-0.0015,-0.0014,0,0.0388,0.0415,0.0479,0.0534,0.056,0.0605,0.0675,0.0715,0.0714,0.0748,0.0747,0.0667,0.0543,0.0391,0.0223,0.0121,-0.0015,-0.0067,0.0008,-0.0018,-0.0108,-0.0104,-0.0161,-0.0162,-0.0163,-0.0164,-0.0165,0,0.0407,0.0446,0.0528,0.0574,0.0604,0.0676,0.0732,0.0766,0.0807,0.0801,0.0818,0.0714,0.0636,0.0393,0.0221,-0.0007,-0.0043,-0.0113,-0.0112,-0.0098,-0.0123,-0.0117,-0.0112,-0.0166,-0.0167,-0.0167,-0.0167,0,0.0444,0.0473,0.0523,0.062,0.0692,0.0779,0.0853,0.0893,0.0922,0.0922,0.0878,0.0744,0.06,0.0397,0.0215,0.005,-0.0067,-0.0124,-0.0123,-0.0123,-0.0106,-0.0128,-0.0121,-0.0171,-0.017,-0.017,-0.017,0,0.0464,0.0504,0.0572,0.0656,0.075,0.0845,0.089,0.0934,0.0974,0.0958,0.0938,0.0775,0.0679,0.0425,0.0258,0.0091,0.0047,-0.0005,-0.0011,-0.0009,0.0047,0.0093,0.0067,0,0,0,0,0,0.0481,0.0528,0.0606,0.0696,0.079,0.0853,0.0953,0.0987,0.1012,0.0993,0.0968,0.0829,0.0573,0.0462,0.0293,0.0229,0.0013,0.0024,-0.0051,-0.0191,-0.0187,-0.0149,0,0,0,0,0,0,0.049,0.0561,0.0601,0.0715,0.0782,0.0898,0.0969,0.0995,0.0983,0.0973,0.0843,0.0773,0.0528,0.0663,0.0281,0.023,0.0157,-0.0096,-0.01,-0.0193,-0.0189,-0.0186,-0.0146,0,0,0,0,0]}]]